Volver al catálogo

STARLINK-4307

ActivoComunicacionesSSO
NORAD 53063·PAYLOAD·🇺🇸 United States

Lanzado Jul 11, 2022 desde Vandenberg Space Force Base

Loading…

Próximos Pases (próximas 24 horas)

TLE

ActualizadoSource: CelesTrak SupGP

Época: Sep 14, 2026, 21:54 UTC

1 53063C 22077W   26257.91298611  .00076453  00000+0  23727-2 0  2578
2 53063  97.2857  73.6735 0001608 102.6735  30.0762 15.33407266    13

Sigue STARLINK-4307 en tiempo real con AllMySat

Download on the App Store